Regional Weather Roundup
Issued by NWS

Home | Current Version | Previous Version | Graphics & Text | Print | Product List | Glossary On
Versions: 1 2 3 4 5 6 7 8 9 10 11 12 13 14 15 16 17 18 19 20 21 22 23 24 25 26 27 28 29 30 31 32 33 34 35 36 37 38 39 40 41 42 43 44 45 46 47 48 49 50
000
ASUS43 KMKX 251218
RWRWI

WISCONSIN REGIONAL WEATHER ROUNDUP
NATIONAL WEATHER SERVICE MILWAUKEE/SULLIVAN WI
700 AM CDT MON MAY 25 2015

NOTE: "FAIR" INDICATES FEW OR NO CLOUDS BELOW 12,000 FEET WITH NO
SIGNIFICANT WEATHER AND/OR OBSTRUCTIONS TO VISIBILITY.

WIZ001-002-006>008-014>016-023>028-251300-
NORTHWEST WISCONSIN

CITY           SKY/WX    TMP DP  RH WIND       PRES   REMARKS
SUPERIOR ARPT  DRIZZLE   48  48  99 E10G16    29.74F
6HR MIN TEMP:  47; 6HR MAX TEMP:  51; 6HR PCP:  0.46;

ASHLAND        LGT RAIN  53  53 100 NE10      29.74F FOG
6HR MIN TEMP:  53; 6HR MAX TEMP:  58; 6HR PCP:  0.37;

HAYWARD        LGT RAIN  58  56  93 NE6       29.70F
6HR MIN TEMP:  57; 6HR MAX TEMP:  58; 6HR PCP:  0.29;

SIREN          HVY RAIN  57  56  97 CALM      29.70S
6HR MIN TEMP:  57; 6HR MAX TEMP:  57; 6HR PCP:  0.14;

CUMBERLAND     CLOUDY    55  54  94 E5        29.70S
RICE LAKE      DRIZZLE   56  55  94 CALM      29.70F
6HR MIN TEMP:  56; 6HR MAX TEMP:  57; 6HR PCP:  0.16;

CHETEK         CLOUDY    57  57  99 CALM      29.70S FOG
6HR MIN TEMP:  56; 6HR MAX TEMP:  57; 6HR PCP:  0.25;

LADYSMITH      DRIZZLE   57  57  97 E3        29.71F
6HR MIN TEMP:  56; 6HR MAX TEMP:  57; 6HR PCP:  0.23;

EAU CLAIRE     LGT RAIN  58  56  93 CALM      29.68S FOG
6HR MIN TEMP:  57; 6HR MAX TEMP:  58; 6HR PCP:  0.49;

MENOMONIE      CLOUDY    58  57  99 CALM      29.69R FOG
6HR MIN TEMP:  57; 6HR MAX TEMP:  58; 6HR PCP:  0.34;

NEW RICHMOND   CLOUDY    56  56 100 E5        29.68S FOG
6HR MIN TEMP:  56; 6HR MAX TEMP:  57; 6HR PCP:  0.02;

OSCEOLA        CLOUDY    57  57 100 E6        29.70F
6HR MIN TEMP:  57; 6HR MAX TEMP:  58; 6HR PCP:  0.12;

$$

WIZ003>005-009-010-017-018-251300-
NORTH CENTRAL WISCONSIN

CITY           SKY/WX    TMP DP  RH WIND       PRES   REMARKS
MANITOWISH WTR DRIZZLE   56  56 100 E5        29.74F
6HR MIN TEMP:  55; 6HR MAX TEMP:  56; 6HR PCP:  0.90;

ARBOR VITAE    RAIN      57  55  95 SE7       29.74F
6HR MIN TEMP:  57; 6HR MAX TEMP:  57; 6HR PCP:  0.31;

WOODRUFF       RAIN      57  55  95 SE7       29.74F
6HR MIN TEMP:  57; 6HR MAX TEMP:  57; 6HR PCP:  0.31;

RHINELANDER    FOG       56  55  97 SE9       29.75F VSB 3/4
6HR MIN TEMP:  55; 6HR MAX TEMP:  56; 6HR PCP:  0.29;

EAGLE RIVER    LGT RAIN  55  55 100 SE9       29.75F
6HR MIN TEMP:  55; 6HR MAX TEMP:  56; 6HR PCP:  0.54;

LAND O LAKES   RAIN      56  55  98 SE8       29.77F
6HR MIN TEMP:  56; 6HR MAX TEMP:  57; 6HR PCP:  0.54;

PHILLIPS       LGT RAIN  56  56 100 E5        29.70F
6HR MIN TEMP:  55; 6HR MAX TEMP:  56; 6HR PCP:  0.61;

TOMAHAWK       FOG       57  56  97 SE3       29.74F VSB 1
6HR MIN TEMP:  55; 6HR MAX TEMP:  57;

MEDFORD        FOG       58  58 100 SE7       29.71F VSB 1/4
6HR MIN TEMP:  54; 6HR MAX TEMP:  58; 6HR PCP:  0.18;

MERRILL        FOG       58  58 100 SE7       29.73F VSB 1
6HR MIN TEMP:  55; 6HR MAX TEMP:  58; 6HR PCP:  0.14;

$$

WIZ029-030-035-036-043>047-251300-
CENTRAL WISCONSIN

CITY           SKY/WX    TMP DP  RH WIND       PRES   REMARKS
WAUSAU         LGT RAIN  59  59 100 SE7       29.72F FOG
6HR MIN TEMP:  55; 6HR MAX TEMP:  59; 6HR PCP:  0.10;

MOSINEE        NOT AVBL
MARSHFIELD     LGT RAIN  62  60  93 S8        29.72F FOG
6HR MIN TEMP:  56; 6HR MAX TEMP:  62; 6HR PCP: TRACE;

STEVENS POINT  LGT RAIN  58  58  99 E6        29.74F
6HR MIN TEMP:  54; 6HR MAX TEMP:  58; 6HR PCP:  0.05;

WAUPACA        FOG       63  62  97 E3        29.75F VSB 1
6HR MIN TEMP:  58; 6HR MAX TEMP:  63; 6HR PCP:  0.06;

WAUTOMA        RAIN      62  62 100 CALM      29.73F VSB 3/4
6HR MIN TEMP:  58; 6HR MAX TEMP:  62; 6HR PCP:  0.13;

WISC RAPIDS    LGT RAIN  63  60  90 SE6       29.73F FOG
6HR MIN TEMP:  57; 6HR MAX TEMP:  63; 6HR PCP:  0.04;

CAMP DOUGLAS   CLOUDY    63  63 100 SE5       29.71S FOG
6HR MIN TEMP:  57; 6HR MAX TEMP:  62; 6HR PCP:  0.03;

$$

WIZ011>013-019>022-031-037>040-048>050-251300-
NORTHEAST WISCONSIN

CITY           SKY/WX    TMP DP  RH WIND       PRES   REMARKS
ANTIGO         RAIN      55  55 100 SE8       29.76F VSB 1/2
SHAWANO        DRIZZLE   60  58  96 E6        29.77F
6HR MIN TEMP:  58; 6HR MAX TEMP:  60; 6HR PCP:  0.14;

OCONTO         CLOUDY    55  55 100 E5        29.79S
6HR MIN TEMP:  55; 6HR MAX TEMP:  56; 6HR PCP:  0.14;

STURGEON BAY   CLOUDY    55  50  82 SE8       29.83F VSB 3/4
6HR MIN TEMP:  54; 6HR MAX TEMP:  57;

GREEN BAY      LGT RAIN  60  59  96 E6        29.78F FOG
6HR MIN TEMP:  58; 6HR MAX TEMP:  60; 6HR PCP:  0.08;

MANITOWOC      FOG       51  51 100 SE3       29.81F VSB<1/4
6HR MIN TEMP:  51; 6HR MAX TEMP:  53; 6HR PCP:  0.09;

APPLETON       CLOUDY    63  63 100 VRB5      29.77F FOG
CLINTONVILLE   DRIZZLE   59  59 100 CALM      29.76F
OSHKOSH        CLOUDY    65  63  93 SE7       29.75F
6HR MIN TEMP:  59; 6HR MAX TEMP:  65; 6HR PCP:  0.03;

$$

WIZ032>034-041-042-053>061-251300-
SOUTHWEST WISCONSIN

CITY           SKY/WX    TMP DP  RH WIND       PRES   REMARKS
LA CROSSE      CLOUDY    65  63  93 S6        29.70R FOG
6HR MIN TEMP:  61; 6HR MAX TEMP:  65; 6HR PCP: TRACE;

SPARTA         DRIZZLE   64  63  95 S5        29.72R
6HR MIN TEMP:  58; 6HR MAX TEMP:  65; 6HR PCP:  0.01;

VIROQUA        CLOUDY    63  63 100 SW8       29.73R
6HR MIN TEMP:  59; 6HR MAX TEMP:  64; 6HR PCP:  0.01;

BOSCOBEL       LGT RAIN  66  64  93 SW5       29.73R FOG
6HR MIN TEMP:  61; 6HR MAX TEMP:  66; 6HR PCP:  0.03;

PRAIRIE DU CHI CLOUDY    65  63  93 S3        29.73R
6HR MIN TEMP:  64; 6HR MAX TEMP:  67; 6HR PCP:  0.03;

PLATTEVILLE    CLOUDY    64  64  98 SW14      29.77R
6HR MIN TEMP:  64; 6HR MAX TEMP:  66; 6HR PCP:  0.55;

$$

WIZ056-057-062-063-064-067-068-251300-
SOUTH CENTRAL WISCONSIN

CITY           SKY/WX    TMP DP  RH WIND       PRES   REMARKS
REEDSBURG      HVY RAIN  64  64 100 CALM      29.71F
6HR MIN TEMP:  58; 6HR MAX TEMP:  64; 6HR PCP:  0.19;

BARABOO/DELLS  RAIN      64  63  94 S5        29.72S
6HR MIN TEMP:  58; 6HR MAX TEMP:  64; 6HR PCP:  0.44;

LONE ROCK      LGT RAIN  65  64  97 W6        29.73R FOG
6HR MIN TEMP:  61; 6HR MAX TEMP:  65; 6HR PCP:  0.28;

MINERAL POINT  LGT RAIN  64  63  94 W10       29.74R
MADISON        CLOUDY    67  64  90 S14       29.72F
6HR MIN TEMP:  62; 6HR MAX TEMP:  67; 6HR PCP:  0.03;

MIDDLETON      CLOUDY    67  67  97 S12G22    29.72F
6HR MIN TEMP:  61; 6HR MAX TEMP:  67; 6HR PCP:  0.13;

WATERTOWN      CLOUDY   N/A N/A N/A S9        29.76F
                                      6HR PCP:  0.01;

MONROE         CLOUDY    64  63  94 SW22G30   29.75R
JANESVILLE     CLOUDY    66  64  94 S16       29.76S FOG
$$

WIZ051-052-058>065-066-070>072-251300-
SOUTHEAST WISCONSIN

CITY           SKY/WX    TMP DP  RH WIND       PRES   REMARKS
MILWAUKEE      CLOUDY    61  58  90 S8        29.82S
6HR MIN TEMP:  54; 6HR MAX TEMP:  62; 6HR PCP:  0.03;

WAUKESHA       CLOUDY    63  63 100 SE8       29.81S FOG
MILWAUKEE/TIMM CLOUDY    61  57  88 S10       29.81F FOG
RACINE         CLOUDY    59  55  87 SE5       29.83F
6HR MIN TEMP:  55; 6HR MAX TEMP:  63; 6HR PCP: TRACE;

BURLINGTON     CLOUDY    64  62  92 S9        29.80F
6HR MIN TEMP:  58; 6HR MAX TEMP:  64;

KENOSHA        CLOUDY    70  63  78 S16G26    29.82S
6HR MIN TEMP:  61; 6HR MAX TEMP:  70; 6HR PCP: TRACE;

FOND DU LAC    CLOUDY    66  63  90 S9        29.76F
6HR MIN TEMP:  59; 6HR MAX TEMP:  66; 6HR PCP:  0.03;

SHEBOYGAN      FOG       56  55  97 S5        29.80F VSB 1
6HR MIN TEMP:  54; 6HR MAX TEMP:  56; 6HR PCP:  0.09;

WEST BEND      CLOUDY    61  59  94 SE6       29.80S FOG
JUNEAU         CLOUDY    65  64  94 SE13      29.77F
6HR MIN TEMP:  59; 6HR MAX TEMP:  65; 6HR PCP:  0.03;

$$

LSZ147-162-251300-
LAKE SUPERIOR

STATION/POSITION TIME  TEMP    WIND        PRES    WAVE
                       AIR SEA DIR/SP/G            HT/PER
                 (UTC) (F)     (DEG/KT/KT) (MB)    (FT/S)
W MID LAKE BUOY  1150   41 37   40/ 12/ 16   N/A     0
DEVILS ISLAND    1200   46      40/ 24/ 26 1084.0F
PORT WING        1100   46      30/ 18/ 20 1078.0F
SAXON HARBOR     1100   51      40/ 13/ 14 1075.0
$$

LMZ867-665-643>646-251300-
LAKE MICHIGAN

STATION/POSITION TIME  TEMP    WIND        PRES    WAVE



USA.gov is the U.S. government's official web portal to all federal, state and local government web resources and services.